sat.trackr.live / text

‹ back to catalog

STARLINK-37563

NORAD 69457 · 2026-127Q

PAYLOAD ACTIVE UNKNOWN

§ Identity

Operator
Country
US
Launch date
2026-06-08
Launch site
AFETR
Launch vehicle
Mass (kg)
RCS (m²)

Purposes: comms

External: N2YO · Heavens-Above · Gunter

§ Orbital elements

Epoch: 2026-09-19T05:41:39.117120Z

Period
93.85 min
Inclination
53.1576°
Eccentricity
0.0001075
Mean motion
15.34415865 rev/d
Perigee alt
461.9 km
Apogee alt
463.4 km
Semi-major
6,840.8 km
B*
5.7591e-4
RAAN
171.9523°
Arg perigee
96.9321°
Mean anomaly
263.1804°
Rev number
1,599

§ Raw data

STARLINK-375631 69457U 26127Q   26262.23725830  .00019141  00000+0  57591-3 0  99922 69457  53.1576 171.9523 0001075  96.9321 263.1804 15.34415865 15991

JSON: /api/v1/satellites/69457 · /tle

For live sub-satellite position, see the globe view (requires WebGL).

§ Visibility from observer

Set your observer location to see the next 7 days of passes ≥ 10°. The values pass through the URL so the page stays shareable.

No JS? Fill the form by hand. The geolocation button needs JavaScript.